Tracking 25710 objects as of 5-Jul-2022
HD Live streaming from Space Station
objects crossing your sky now

FENGYUN 1C DEB

Track FENGYUN 1C DEB now!
10-day predictions


NORAD ID: 37929
Int'l Code: 1999-025EPE
Perigee: 547.7 km
Apogee: 768.0 km
Inclination: 99.0 °
Period: 97.7 minutes
Semi major axis: 7028 km
RCS: 0.0114 m2 (small)
Launch date: May 10, 1999
Source: People's Republic of China (PRC)
Launch site: Taiyaun Space Center, China (TSC)

Note: This is SATELLITE DEBRIS
aabbcc
Your satellite tracking list
Your tracking list is empty




NASA's NSSDC Master Catalog

Two Line Element Set (TLE):
1 37929U 99025EPE 22185.63302921  .00006753  00000-0  86779-3 0  9990
2 37929  98.9631 317.0525 0156683 183.9148 176.0843 14.73251271635640
Source of the keplerian elements: AFSPC